Wind_Speed
6 5 3 1 1 2 4 5 6 8 9 9 10 11 12 12 12 12 12 12 12 11 11 11 11 11 11 11 11 11 11 10 8 7 7 7 7 8 10 13 15 18 19
7 6 4 3 2 2 3 4 6 7 8 9 9 10 11 12 12 12 12 12 12 11 11 11 11 11 11 12 12 12 12 11 10 9 9 9 10 10 11 13 15 18 20
8 7 5 4 3 3 4 5 6 7 8 9 9 10 10 11 11 11 12 12 12 12 12 12 12 12 12 13 14 14 13 13 12 11 11 12 12 13 14 15 16 18 20
9 8 6 5 5 5 5 6 7 8 8 9 10 10 11 11 12 12 12 12 12 13 13 13 14 14 14 15 16 16 15 15 15 14 15 15 16 17 17 18 19 20 21
10 9 8 7 7 7 7 8 8 9 10 10 11 11 12 12 13 13 14 14 14 14 15 15 16 16 17 17 18 18 18 18 18 18 18 19 20 20 20 21 21 22 23
11 10 10 9 9 9 9 10 10 11 12 12 12 13 14 14 15 15 16 16 16 17 17 18 19 20 20 20 21 21 21 21 22 22 22 23 23 24 24 24 25 26 26
12 11 11 11 11 11 11 12 12 13 13 14 14 15 16 16 17 17 18 18 19 20 21 21 22 23 24 24 24 24 25 26 26 26 27 27 27 28 28 28 29 29 30
13 13 12 12 12 13 13 13 14 15 15 16 16 17 18 19 19 20 20 21 22 22 23 24 25 26 27 27 27 28 29 30 30 30 30 30 31 31 32 32 32 33 33
15 14 14 14 14 14 15 15 16 16 17 18 19 20 21 21 22 22 23 24 25 25 26 27 28 29 30 30 31 32 33 33 33 34 33 33 34 35 35 35 35 36 36
16 16 16 16 16 16 17 18 18 19 20 21 21 22 23 23 24 25 26 27 27 28 29 30 31 32 33 33 35 36 36 37 37 37 37 38 38 39 39 40 39 40 40
17 17 17 18 18 18 19 20 20 21 22 23 24 25 26 27 28 28 29 29 30 31 31 33 34 35 36 37 38 39 40 40 41 41 41 41 42 43 43 44 44 45 45
18 19 19 20 20 20 21 22 23 24 25 26 27 28 28 30 31 31 32 32 33 33 34 36 37 38 39 40 41 42 43 44 44 44 45 45 45 46 47 48 48 49 49
20 21 21 22 22 23 23 24 25 26 27 28 29 30 31 32 33 34 34 35 36 36 38 39 40 41 42 43 44 45 46 46 47 48 48 48 49 49 50 51 51 52 51
22 23 23 23 24 25 25 27 28 29 30 31 32 33 34 35 36 36 37 38 39 40 41 42 43 44 45 46 48 48 49 49 50 51 51 51 51 51 52 53 53 53 53
24 25 25 26 26 27 28 29 31 32 33 34 35 35 36 37 38 39 40 41 42 43 44 45 47 48 49 50 51 51 52 52 52 53 54 54 53 54 54 54 55 56 56
26 26 27 28 29 30 31 32 33 35 36 36 37 39 40 40 41 43 43 44 45 46 48 49 50 51 52 52 53 54 55 55 55 56 56 56 56 55 56 56 57 57 58
28 29 30 31 32 33 34 35 36 37 38 39 40 42 43 43 44 45 46 47 48 49 50 51 52 53 54 55 56 57 57 57 58 58 58 58 57 57 57 57 57 57 57
31 32 33 34 35 36 37 38 39 40 41 42 43 44 45 46 47 48 49 50 51 52 53 54 55 55 57 58 58 59 59 59 59 59 59 59 59 58 59 58 57 57 57
34 34 35 36 37 38 40 41 42 43 44 45 46 47 48 49 49 50 51 52 53 54 55 56 57 57 58 59 60 60 60 60 59 59 60 60 60 60 60 59 58 57 56
36 37 38 39 40 41 42 44 45 46 47 47 48 50 50 51 51 52 54 55 56 57 57 58 59 59 60 61 61 61 61 61 61 61 61 61 61 60 60 59 57 55 54
39 40 41 42 43 44 45 46 47 48 49 50 51 51 52 53 54 55 56 57 57 58 59 60 60 61 61 62 62 62 62 63 63 62 62 61 60 60 58 57 55 53 51
41 42 43 44 45 46 47 48 49 50 50 51 52 52 53 55 56 57 58 58 59 60 60 61 62 63 63 63 63 64 64 64 63 63 63 62 60 58 56 54 52 50 49
43 44 45 46 47 48 49 50 51 51 52 52 53 54 55 56 57 58 59 60 61 62 62 63 64 64 64 65 65 65 64 64 64 63 63 60 58 56 53 51 49 48 48
46 46 47 48 49 50 50 51 52 53 53 54 55 56 57 58 59 60 61 62 63 63 64 64 64 65 65 65 65 64 65 64 63 62 60 58 55 52 50 48 47 46 45
47 48 48 49 50 51 52 52 53 54 55 56 57 58 58 59 60 61 62 63 64 64 64 65 65 65 65 65 64 64 64 63 61 59 57 54 52 50 48 46 45 44 43
49 49 50 51 51 52 53 54 55 56 56 57 58 59 60 61 62 63 63 64 65 65 65 65 65 65 64 64 63 63 62 60 58 56 54 52 49 48 46 44 43 42 42
Wind_Direction
196 198 202 222 337 11 20 21 22 23 22 21 20 21 22 22 22 22 21 20 19 19 19 18 17 15 11 8 5 2 358 354 346 331 319 310 299 286 273 263 256 251 250
204 208 217 233 275 326 345 352 360 6 8 8 8 8 10 11 11 11 11 11 10 7 4 3 1 358 356 354 351 348 344 341 336 328 315 306 299 291 285 273 264 259 255
211 215 223 236 264 297 319 330 341 350 355 356 355 355 355 356 357 357 357 358 359 357 355 353 349 345 341 340 339 338 334 331 326 319 311 305 299 293 289 282 273 266 261
218 224 231 243 265 287 307 316 325 333 339 342 344 343 344 344 344 344 344 344 344 344 344 343 340 338 335 331 328 326 324 321 317 311 306 303 299 294 289 285 279 273 269
225 230 238 249 266 282 296 306 312 319 325 329 331 332 332 331 331 332 332 334 334 335 334 333 332 330 328 325 323 320 318 314 311 307 303 300 297 293 291 286 282 276 273
229 235 244 255 268 279 288 297 303 310 315 318 319 321 321 321 322 322 322 323 323 323 323 323 322 322 321 319 317 315 313 311 308 304 300 298 296 293 290 286 281 277 274
235 241 249 259 269 279 286 292 298 303 307 310 312 313 313 313 314 315 315 316 316 316 316 316 316 316 316 314 312 310 309 308 306 303 299 297 294 291 288 285 281 277 274
239 245 252 261 270 279 285 290 294 298 301 305 307 309 310 310 310 310 310 311 312 313 313 312 312 312 312 311 309 308 307 307 304 302 298 296 294 291 288 286 282 278 274
242 249 256 264 272 279 284 288 292 295 298 300 303 305 307 308 308 308 308 309 309 310 310 310 310 310 309 308 307 306 305 305 303 301 297 295 293 291 289 286 283 279 275
247 253 260 267 274 279 283 287 290 293 296 298 300 302 304 304 305 306 306 306 307 307 307 307 308 308 307 306 306 306 305 303 302 300 297 295 293 291 289 286 284 281 277
252 257 263 269 274 279 282 286 289 293 295 297 298 300 301 302 303 304 304 304 305 305 305 306 306 306 306 305 305 305 304 303 302 300 297 295 293 291 289 287 285 283 280
256 261 266 271 275 279 283 286 288 292 294 296 297 298 299 300 302 302 303 304 304 304 305 305 306 306 305 304 304 303 303 302 302 300 297 295 293 291 289 287 285 283 281
259 263 268 272 276 280 283 286 288 291 293 295 296 297 299 300 301 302 302 303 303 304 305 305 306 306 305 304 304 303 302 302 301 300 297 295 293 291 289 288 286 283 280
262 266 269 273 277 281 283 286 289 291 293 294 296 297 298 299 300 301 302 302 303 303 304 305 305 305 304 304 304 303 302 301 301 300 298 295 293 292 290 288 286 283 280
265 268 271 275 278 281 284 287 289 292 293 295 296 297 299 299 300 301 301 302 302 303 304 305 305 305 304 304 304 304 303 303 302 301 299 296 294 293 291 289 288 284 281
268 270 274 277 280 282 285 288 290 292 294 295 296 297 298 299 299 300 301 301 302 303 303 304 305 305 305 304 304 304 303 302 302 301 299 296 294 292 291 290 287 284 282
270 273 276 279 282 284 286 288 291 292 294 295 296 297 298 299 299 300 300 301 302 303 303 304 304 305 305 305 304 304 304 302 301 300 298 296 294 293 293 292 289 286 284
272 275 277 280 283 285 287 289 291 292 294 295 296 297 298 299 299 300 301 301 302 303 303 304 304 304 305 305 305 304 304 302 301 301 300 298 296 294 294 293 291 288 286
274 276 279 281 284 286 288 289 291 293 294 296 296 297 298 299 300 300 301 302 303 303 304 304 304 305 305 305 305 304 304 303 302 301 300 299 298 296 295 293 291 289 286
275 277 280 282 285 287 288 290 291 293 295 296 297 298 298 299 300 301 301 302 303 304 304 304 305 305 305 305 305 305 304 303 302 301 301 300 298 296 295 293 291 289 286
276 279 281 284 286 287 289 290 292 293 294 295 297 298 299 299 300 301 302 302 303 303 304 305 305 305 305 304 304 304 304 303 302 301 300 299 297 295 294 293 290 287 284
277 280 282 284 286 287 289 291 293 294 294 295 297 297 298 299 300 301 302 302 303 304 304 304 304 304 304 304 304 303 304 303 302 301 300 298 296 295 293 291 288 285 283
278 280 282 284 285 287 289 291 292 293 295 296 297 298 299 300 300 301 302 302 303 303 304 304 304 304 304 304 304 303 303 303 302 301 300 298 296 295 292 289 286 285 283
279 280 282 284 286 288 289 291 292 293 295 296 297 298 299 300 300 301 302 303 303 303 303 303 304 304 304 304 304 303 303 303 302 301 299 297 295 293 292 288 286 284 282
279 281 283 285 287 288 290 291 292 294 295 296 297 298 299 300 301 301 302 303 303 303 303 303 304 304 304 304 303 303 303 302 301 300 299 297 294 292 291 288 285 282 280
280 282 284 285 287 288 290 291 293 294 295 297 298 299 300 300 301 301 302 303 303 303 303 303 303 303 304 303 303 302 302 301 300 299 298 297 294 292 290 287 284 282 279
Height
5891 5892 5892 5892 5892 5891 5890 5889 5888 5887 5885 5883 5882 5880 5878 5875 5873 5871 5869 5867 5865 5864 5862 5860 5859 5857 5855 5854 5853 5851 5850 5848 5847 5847 5846 5845 5845 5845 5845 5845 5845 5846 5847
5890 5890 5891 5891 5891 5890 5890 5889 5888 5886 5885 5883 5882 5880 5878 5876 5874 5872 5870 5868 5866 5864 5862 5860 5859 5857 5855 5853 5852 5850 5848 5847 5846 5845 5844 5843 5842 5842 5841 5841 5842 5842 5842
5888 5889 5889 5889 5890 5889 5889 5888 5887 5886 5884 5883 5881 5879 5878 5876 5874 5872 5869 5867 5865 5863 5862 5860 5858 5856 5854 5852 5850 5848 5846 5844 5843 5842 5841 5840 5839 5838 5838 5837 5837 5837 5837
5886 5887 5887 5888 5888 5888 5887 5886 5885 5884 5883 5881 5880 5878 5876 5875 5873 5871 5869 5866 5864 5862 5860 5858 5856 5854 5852 5850 5847 5845 5843 5841 5840 5838 5837 5836 5835 5834 5833 5832 5832 5831 5831
5883 5884 5885 5885 5886 5885 5885 5884 5883 5882 5881 5879 5878 5876 5874 5873 5871 5869 5867 5865 5862 5860 5858 5856 5853 5851 5849 5846 5844 5841 5839 5837 5835 5834 5832 5831 5829 5828 5826 5825 5825 5825 5825
5881 5882 5882 5883 5883 5883 5882 5882 5881 5880 5878 5877 5875 5874 5872 5870 5868 5866 5864 5862 5860 5857 5855 5853 5850 5847 5845 5842 5839 5836 5834 5831 5829 5827 5825 5823 5821 5820 5818 5817 5816 5816 5817
5877 5878 5879 5880 5880 5880 5879 5878 5878 5877 5875 5874 5872 5870 5869 5867 5865 5863 5861 5858 5856 5854 5851 5848 5845 5842 5839 5836 5833 5830 5827 5824 5822 5819 5816 5814 5812 5810 5809 5807 5806 5806 5806
5874 5875 5876 5876 5876 5876 5875 5875 5874 5873 5871 5870 5868 5866 5864 5863 5861 5858 5856 5854 5851 5848 5846 5843 5840 5836 5833 5830 5827 5823 5820 5816 5813 5810 5807 5804 5802 5800 5798 5796 5795 5794 5794
5870 5871 5871 5872 5872 5872 5871 5870 5870 5868 5867 5865 5864 5862 5860 5858 5855 5853 5851 5848 5845 5842 5839 5836 5833 5829 5826 5823 5819 5815 5812 5808 5804 5800 5797 5793 5791 5788 5786 5784 5783 5782 5782
5865 5866 5867 5867 5867 5867 5866 5866 5865 5863 5862 5860 5858 5856 5854 5852 5850 5847 5845 5842 5839 5836 5833 5829 5825 5822 5818 5814 5810 5806 5802 5798 5794 5790 5786 5782 5779 5776 5773 5771 5769 5768 5768
5861 5861 5862 5862 5862 5861 5861 5860 5859 5858 5856 5854 5852 5850 5848 5846 5843 5840 5838 5835 5832 5828 5825 5821 5817 5813 5809 5804 5800 5795 5790 5786 5782 5778 5774 5770 5766 5763 5760 5757 5755 5753 5752
5855 5856 5856 5856 5856 5855 5855 5854 5852 5851 5849 5847 5845 5843 5841 5838 5836 5833 5830 5827 5823 5820 5816 5812 5808 5804 5799 5794 5789 5784 5779 5774 5769 5765 5761 5757 5753 5749 5745 5742 5739 5737 5735
5849 5850 5850 5850 5850 5849 5848 5847 5845 5844 5842 5840 5838 5835 5833 5830 5827 5824 5821 5818 5814 5810 5806 5802 5797 5793 5788 5783 5778 5772 5767 5761 5757 5752 5747 5742 5738 5733 5729 5726 5722 5719 5717
5843 5844 5843 5843 5843 5842 5841 5839 5838 5836 5834 5832 5829 5827 5824 5821 5818 5815 5811 5808 5804 5800 5796 5791 5786 5781 5776 5770 5765 5759 5753 5748 5742 5737 5731 5727 5722 5717 5713 5708 5705 5702 5700
5836 5836 5836 5836 5835 5834 5833 5831 5829 5828 5825 5823 5820 5817 5815 5812 5808 5804 5801 5797 5793 5788 5784 5779 5774 5769 5763 5757 5751 5745 5739 5733 5727 5721 5715 5710 5705 5700 5695 5691 5687 5683 5681
5829 5829 5828 5828 5827 5826 5824 5822 5820 5818 5816 5813 5810 5807 5804 5801 5797 5793 5789 5785 5780 5776 5771 5766 5760 5754 5749 5743 5737 5731 5724 5718 5711 5705 5699 5693 5688 5683 5678 5673 5668 5664 5661
5821 5820 5820 5819 5818 5817 5815 5813 5811 5808 5805 5803 5799 5796 5793 5789 5785 5781 5777 5772 5768 5762 5757 5751 5745 5739 5733 5727 5721 5715 5708 5701 5694 5688 5682 5676 5670 5665 5659 5654 5650 5645 5642
5812 5811 5811 5810 5808 5807 5805 5802 5800 5797 5795 5791 5788 5784 5781 5777 5773 5768 5763 5759 5754 5748 5742 5736 5730 5724 5718 5711 5705 5698 5691 5684 5677 5671 5665 5658 5652 5647 5641 5636 5631 5627 5623
5802 5802 5801 5799 5798 5796 5794 5791 5788 5785 5782 5779 5776 5772 5768 5763 5759 5754 5749 5744 5738 5733 5727 5721 5714 5708 5701 5694 5687 5680 5674 5667 5660 5654 5647 5641 5634 5628 5623 5617 5613 5608 5604
5792 5791 5790 5788 5787 5784 5782 5779 5776 5773 5770 5766 5762 5758 5754 5749 5745 5739 5734 5728 5723 5717 5711 5704 5698 5691 5684 5677 5670 5663 5656 5650 5643 5636 5629 5623 5617 5610 5605 5599 5594 5590 5586
5781 5780 5778 5777 5775 5772 5769 5766 5763 5760 5756 5752 5748 5744 5739 5734 5729 5724 5719 5713 5707 5701 5694 5688 5681 5674 5667 5660 5653 5646 5639 5632 5625 5618 5611 5605 5598 5592 5587 5581 5576 5572 5569
5769 5768 5766 5764 5762 5759 5756 5753 5750 5746 5742 5738 5734 5729 5724 5719 5714 5708 5703 5697 5690 5684 5677 5671 5664 5657 5650 5642 5635 5628 5621 5614 5606 5599 5593 5587 5580 5574 5569 5564 5560 5556 5552
5757 5755 5753 5751 5748 5746 5742 5739 5735 5732 5727 5723 5719 5714 5709 5703 5698 5692 5686 5680 5674 5667 5660 5653 5646 5639 5632 5624 5617 5610 5603 5595 5588 5581 5574 5568 5562 5557 5552 5547 5543 5540 5537
5743 5741 5739 5737 5734 5731 5728 5724 5721 5717 5712 5708 5703 5698 5692 5687 5681 5675 5669 5663 5656 5649 5642 5635 5628 5621 5613 5606 5598 5591 5583 5576 5569 5562 5555 5549 5544 5540 5535 5531 5527 5524 5521
5729 5727 5725 5722 5719 5716 5713 5709 5705 5701 5697 5692 5687 5681 5676 5670 5664 5658 5652 5645 5638 5631 5624 5617 5610 5602 5595 5587 5579 5572 5565 5558 5550 5543 5537 5532 5528 5523 5519 5515 5512 5509 5506
5715 5712 5710 5707 5704 5701 5697 5694 5689 5685 5680 5675 5670 5665 5659 5653 5647 5641 5634 5627 5620 5613 5606 5598 5591 5583 5576 5569 5561 5554 5547 5540 5533 5526 5520 5515 5511 5507 5503 5499 5496 5494 5491